User: anonymous   Login
Location: Unspecified
(0.0000°N, 0.0000°E)
Time: 16:32:56
(UTC+00:00)
Language:

PROBA 2 - Orbit

View from above orbital plane
View from above orbital plane
View from above satellite
View from above satellite

Ground track
Ground track

The orbit data is extracted from the following two-line orbital elements,

1 36037U 09059B   18345.09332929 -.00000017  00000-0  67146-5 0  9998
2 36037  98.2345 174.5272 0014528 106.1183 254.1614 14.53056404482829
Epoch (UTC): 11 December 2018 02:14:23
Eccentricity: 0.0014528
inclination: 98.2345°
perigee height: 705 km
apogee height: 726 km
right ascension of ascending node: 174.5272°
argument of perigee: 106.1183°
revolutions per day: 14.53056404
mean anomaly at epoch: 254.1614°
orbit number at epoch: 48282

The dashed part of the orbit path shows where the satellite is in the earth's shadow,  

DLR